User: anonymous   Login
Location: Chervonnoye
(48.6000°N, 34.4000°E)
Time: 08:23:02
(UTC+00:00)
Language:

FENGYUN 1C DEB - Orbit

View from above orbital plane
View from above orbital plane
View from above satellite
View from above satellite

Ground track
Ground track

The orbit data is extracted from the following two-line orbital elements,

1 29772U 99025BN  21171.36833354  .00000151  00000-0  12528-3 0  9997
2 29772  98.4341 126.9117 0146302 199.9019 313.1776 13.96538979734012
Epoch (UTC): 20 June 2021 08:50:24
Eccentricity: 0.0146302
inclination: 98.4341°
perigee height: 799 km
apogee height: 1012 km
right ascension of ascending node: 126.9117°
argument of perigee: 199.9019°
revolutions per day: 13.96538979
mean anomaly at epoch: 313.1776°
orbit number at epoch: 73401

The dashed part of the orbit path shows where the satellite is in the earth's shadow,  

DLR